Date String (YYYY-MM-DD hh:mm:ss) UTC,Instrument flags,Ambient pressure (hPa),Sample flow (lpm),Bypass flow (lpm),Sample temperature (°C),Ambient temperature (°C),ASC tube jacket temperature (°C),LED temperature (°C),Box temperature (°C),Sample RH (%),Span deviation,Mass concentration (μg/m³),Mass concentration (μg/m³),Mass concentration (μg/m³)
DateTimeUTC,F1_M11,P_M11,Q1_M11,Q2_M11,T1_M11,T2_M11,T3_M11,T4_M11,T5_M11,U1_M11,ZSPAN_M11,X0_M11,X2_M11,X1_M11
2022-01-28 07:00:00,,0834.7,5.00,0.00,22.0,21.5,00.0,31.0,23.6,08.4,0000.0,0005.94,0004.11,0003.86
2022-01-28 07:01:00,,0834.6,5.00,0.00,22.0,21.4,00.0,31.0,23.6,08.4,0000.0,0005.98,0004.12,0003.86
2022-01-28 07:02:00,,0834.6,5.00,0.00,21.9,21.2,00.0,31.0,23.5,08.4,0000.0,0005.99,0004.12,0003.85
2022-01-28 07:03:00,,0834.6,5.00,0.00,21.9,21.2,00.0,31.0,23.5,08.4,0000.0,0006.03,0004.11,0003.84
2022-01-28 07:04:00,,0834.6,5.01,0.00,21.9,21.7,00.0,31.0,23.6,08.4,0000.0,0006.00,0004.09,0003.81
2022-01-28 07:05:00,,0834.5,5.00,0.00,22.1,22.5,00.0,31.0,23.9,08.3,0000.0,0006.03,0004.06,0003.78
2022-01-28 07:06:00,,0834.6,4.99,0.00,22.2,23.0,00.0,31.1,24.1,08.3,0000.0,0005.91,0004.02,0003.75
2022-01-28 07:07:00,,0834.6,5.00,0.00,22.2,22.7,00.0,31.1,24.1,08.2,0000.0,0005.85,0004.01,0003.74
2022-01-28 07:08:00,,0834.5,4.99,0.00,22.2,22.3,00.0,31.1,24.0,08.2,0000.0,0005.78,0003.99,0003.74
2022-01-28 07:09:00,,0834.6,5.01,0.00,22.1,22.0,00.0,31.1,23.8,08.2,0000.0,0005.79,0003.99,0003.73
2022-01-28 07:10:00,,0834.6,4.99,0.00,22.1,21.7,00.0,31.1,23.7,08.3,0000.0,0005.80,0003.98,0003.72
2022-01-28 07:11:00,,0834.6,5.00,0.00,22.0,21.5,00.0,31.0,23.6,08.3,0000.0,0005.78,0003.97,0003.71
2022-01-28 07:12:00,,0834.6,5.01,0.00,22.0,21.4,00.0,31.0,23.5,08.3,0000.0,0005.84,0003.98,0003.69
2022-01-28 07:13:00,,0834.6,5.00,0.00,21.9,21.2,00.0,31.0,23.4,08.4,0000.0,0005.76,0003.96,0003.68
2022-01-28 07:14:00,,0834.5,5.00,0.00,21.8,21.1,00.0,31.0,23.3,08.4,0000.0,0005.69,0003.94,0003.67
2022-01-28 07:15:00,,0834.6,5.01,0.00,21.8,21.4,00.0,31.0,23.4,08.4,0000.0,0005.73,0003.96,0003.68
2022-01-28 07:16:00,,0834.6,5.00,0.00,21.9,22.1,00.0,31.0,23.7,08.3,0000.0,0005.67,0003.95,0003.68
2022-01-28 07:17:00,,0834.6,4.99,0.00,22.1,22.8,00.0,31.0,23.9,08.3,0000.0,0006.08,0003.96,0003.68
2022-01-28 07:18:00,,0834.5,5.00,0.00,22.2,22.9,00.0,31.1,24.1,08.2,0000.0,0006.07,0003.96,0003.69
2022-01-28 07:19:00,,0834.5,5.00,0.00,22.2,22.6,00.0,31.1,24.0,08.1,0000.0,0006.17,0003.97,0003.68
2022-01-28 07:20:00,,0834.4,4.99,0.00,22.1,22.1,00.0,31.1,23.9,08.0,0000.0,0006.15,0003.96,0003.67
2022-01-28 07:21:00,,0834.4,5.01,0.00,22.1,21.8,00.0,31.1,23.7,08.1,0000.0,0006.04,0003.95,0003.67
2022-01-28 07:22:00,,0834.4,4.99,0.00,22.0,21.5,00.0,31.0,23.6,08.2,0000.0,0005.96,0003.92,0003.66
2022-01-28 07:23:00,,0834.4,5.01,0.00,21.9,21.3,00.0,31.0,23.5,08.2,0000.0,0005.82,0003.89,0003.66
2022-01-28 07:24:00,,0834.4,5.00,0.00,21.9,21.2,00.0,31.0,23.4,08.3,0000.0,0005.88,0003.90,0003.66
2022-01-28 07:25:00,,0834.4,5.01,0.00,21.8,21.0,00.0,31.0,23.3,08.3,0000.0,0005.86,0003.90,0003.65
2022-01-28 07:26:00,,0834.4,5.00,0.00,21.8,21.2,00.0,30.9,23.3,08.2,0000.0,0005.82,0003.89,0003.64
2022-01-28 07:27:00,,0834.4,5.00,0.00,21.9,21.9,00.0,31.0,23.6,08.0,0000.0,0005.81,0003.88,0003.63
2022-01-28 07:28:00,,0834.4,5.01,0.00,22.0,22.7,00.0,31.0,23.9,07.9,0000.0,0005.70,0003.86,0003.62
2022-01-28 07:29:00,,0834.4,4.99,0.00,22.2,23.1,00.0,31.0,24.1,07.7,0000.0,0005.80,0003.83,0003.59
2022-01-28 07:30:00,,0834.4,5.01,0.00,22.2,22.8,00.0,31.1,24.1,07.6,0000.0,0005.77,0003.81,0003.57
2022-01-28 07:31:00,,0834.4,4.98,0.00,22.2,22.5,00.0,31.1,24.0,07.6,0000.0,0005.75,0003.79,0003.56
2022-01-28 07:32:00,,0834.4,5.01,0.00,22.2,22.2,00.0,31.1,23.9,07.6,0000.0,0006.90,0003.77,0003.53
2022-01-28 07:33:00,,0834.4,4.99,0.00,22.1,21.9,00.0,31.0,23.8,07.5,0000.0,0006.94,0003.73,0003.48
2022-01-28 07:34:00,,0834.4,5.00,0.00,22.1,21.6,00.0,31.0,23.7,07.5,0000.0,0006.81,0003.66,0003.43
2022-01-28 07:35:00,,0834.2,5.00,0.00,22.0,21.4,00.0,31.0,23.6,07.5,0000.0,0006.63,0003.60,0003.39
2022-01-28 07:36:00,,0834.2,5.00,0.00,21.9,21.3,00.0,31.0,23.5,07.6,0000.0,0006.56,0003.56,0003.34
2022-01-28 07:37:00,,0834.2,5.00,0.00,21.9,21.2,00.0,31.0,23.4,07.7,0000.0,0006.98,0003.52,0003.31
2022-01-28 07:38:00,,0834.3,5.01,0.00,21.9,21.2,00.0,31.0,23.4,07.7,0000.0,0007.30,0003.48,0003.27
2022-01-28 07:39:00,,0834.3,5.00,0.00,21.9,21.9,00.0,31.0,23.6,07.7,0000.0,0006.93,0003.46,0003.23
2022-01-28 07:40:00,,0834.4,5.01,0.00,22.1,22.6,00.0,31.0,23.9,07.5,0000.0,0006.77,0003.42,0003.21
2022-01-28 07:41:00,,0834.3,4.98,0.00,22.2,23.2,00.0,31.1,24.2,07.5,0000.0,0006.78,0003.40,0003.19
2022-01-28 07:42:00,,0834.3,5.01,0.00,22.3,23.0,00.0,31.1,24.1,07.1,0000.0,0006.64,0003.35,0003.15
2022-01-28 07:43:00,,0834.2,5.00,0.00,22.3,22.6,00.0,31.1,24.0,06.9,0000.0,0005.27,0003.29,0003.10
2022-01-28 07:44:00,,0834.3,4.99,0.00,22.2,22.3,00.0,31.1,23.9,06.8,0000.0,0005.18,0003.25,0003.02
2022-01-28 07:45:00,,0834.2,5.00,0.00,22.2,21.9,00.0,31.1,23.8,06.6,0000.0,0005.18,0003.23,0002.96
2022-01-28 07:46:00,,0834.2,5.00,0.00,22.1,21.7,00.0,31.1,23.7,06.6,0000.0,0005.13,0003.19,0002.90
2022-01-28 07:47:00,,0834.2,4.99,0.00,22.0,21.5,00.0,31.1,23.6,06.6,0000.0,0005.04,0003.15,0002.84
2022-01-28 07:48:00,,0834.2,5.00,0.00,22.0,21.3,00.0,31.0,23.5,06.5,0000.0,0004.38,0003.09,0002.78
2022-01-28 07:49:00,,0834.2,5.00,0.00,21.9,21.1,00.0,31.0,23.4,06.5,0000.0,0004.55,0003.00,0002.72
2022-01-28 07:50:00,,0834.3,5.00,0.00,21.8,21.0,00.0,31.0,23.3,06.5,0000.0,0004.79,0002.91,0002.65
2022-01-28 07:51:00,,0834.2,5.01,0.00,21.9,21.6,00.0,31.0,23.5,06.4,0000.0,0004.86,0002.85,0002.56
2022-01-28 07:52:00,,0834.3,5.00,0.00,22.0,22.3,00.0,31.0,23.8,06.4,0000.0,0004.79,0002.77,0002.48
2022-01-28 07:53:00,,0834.3,5.01,0.00,22.1,22.9,00.0,31.1,24.0,06.3,0000.0,0004.76,0002.74,0002.43
2022-01-28 07:54:00,,0834.2,4.99,0.00,22.2,22.9,00.0,31.1,24.1,06.3,0000.0,0004.76,0002.72,0002.41
2022-01-28 07:55:00,,0834.2,5.00,0.00,22.2,22.5,00.0,31.1,24.0,06.3,0000.0,0004.77,0002.73,0002.41
2022-01-28 07:56:00,,0834.1,4.99,0.00,22.2,22.0,00.0,31.1,23.8,06.3,0000.0,0004.70,0002.69,0002.39
2022-01-28 07:57:00,,0834.1,5.01,0.00,22.1,21.8,00.0,31.1,23.7,06.3,0000.0,0004.67,0002.68,0002.38
2022-01-28 07:58:00,,0834.0,5.00,0.00,22.0,21.5,00.0,31.0,23.5,06.3,0000.0,0004.62,0002.65,0002.36
2022-01-28 07:59:00,,0834.0,4.99,0.00,21.9,21.3,00.0,31.0,23.4,06.3,0000.0,0004.58,0002.62,0002.33
